Wetbulb
56.71 56.64 56.72 56.93 57.31 57.50 57.53 57.79 57.87 58.11 58.36 58.59 58.88 59.40 60.01 60.26 59.66 59.66 58.72 62.60 66.94 74.62 74.55 71.23 69.13 68.57 69.46 67.91 67.73 66.17 55.99 53.63 56.28 57.18 58.00 63.78 63.49 68.32 69.82 66.72 68.32 68.49 67.51 69.12 70.84
56.15 56.11 56.22 56.56 57.12 57.60 57.73 57.89 58.19 58.27 58.09 58.25 58.72 59.29 59.91 60.26 57.53 55.06 64.05 71.41 73.40 74.75 68.10 63.30 62.98 65.31 64.17 62.13 61.70 59.65 56.74 56.72 59.68 60.37 59.57 63.43 63.80 64.55 66.26 66.00 65.15 65.73 68.72 70.27 70.73
56.12 55.88 56.03 56.13 56.30 57.01 57.31 57.55 57.93 57.99 58.06 57.86 58.38 59.00 59.71 59.37 56.31 55.68 75.01 71.72 74.39 73.93 63.83 60.37 60.88 61.48 59.06 59.61 57.82 56.85 56.75 58.50 59.82 61.63 62.84 61.70 63.44 65.75 64.65 63.29 65.27 63.61 65.70 67.84 67.95
56.17 55.72 55.69 55.86 55.86 56.09 56.81 57.08 57.34 57.55 57.34 57.56 58.06 58.75 59.85 57.81 47.23 60.55 75.25 75.00 74.24 70.25 62.68 57.90 57.74 56.61 56.49 55.92 58.50 53.62 59.57 60.06 60.17 62.39 62.23 61.52 63.41 63.96 66.82 65.99 68.52 68.23 67.90 67.73 67.20
55.86 55.68 55.50 55.72 55.79 55.86 55.84 56.25 56.91 56.97 56.85 57.23 58.00 59.61 56.93 52.84 53.28 60.09 73.25 74.57 70.64 65.66 60.19 57.47 56.37 56.52 55.45 56.87 57.01 54.68 59.40 59.92 60.00 60.97 61.54 64.03 61.40 63.96 66.45 68.79 69.47 69.22 69.04 67.88 67.69
55.83 55.98 55.94 56.09 56.17 56.15 56.21 56.40 56.25 56.42 56.43 57.15 58.08 60.02 54.92 46.47 56.84 59.03 65.77 66.55 64.06 61.27 58.12 57.71 57.82 58.86 57.20 56.47 54.32 57.22 60.17 59.65 59.68 60.37 61.22 60.07 60.69 63.86 66.10 69.04 68.37 68.50 67.65 68.27 68.18
55.83 55.69 55.61 55.65 55.76 55.74 55.87 55.76 55.78 56.03 56.30 57.46 58.54 59.87 53.92 50.69 58.37 63.98 63.74 62.43 62.06 59.84 57.33 58.76 59.93 57.84 56.96 54.00 56.84 56.33 55.29 59.58 59.65 60.05 58.23 59.84 58.42 61.15 66.42 67.62 67.40 67.53 67.93 68.43 68.79
55.65 55.53 55.32 55.14 55.18 55.29 55.14 55.02 55.27 55.71 57.12 58.46 60.67 57.72 49.61 56.67 57.34 57.07 57.66 59.94 62.56 60.84 58.90 59.61 60.64 57.91 54.90 55.88 54.17 51.46 53.80 52.48 59.10 60.22 60.83 59.03 53.58 62.28 65.84 65.70 65.29 66.59 68.12 68.66 69.00
55.22 55.22 54.90 54.66 54.54 54.42 54.17 54.23 55.79 57.25 58.45 60.33 55.91 54.22 51.05 62.34 56.87 57.82 57.80 56.78 60.19 60.59 59.00 61.46 58.98 54.45 53.68 49.45 47.13 49.34 47.75 53.93 57.79 62.28 62.20 60.14 53.93 61.99 64.70 64.95 64.61 65.57 66.19 67.20 68.50
54.65 54.48 54.36 54.16 54.04 53.71 53.48 54.33 56.25 58.20 59.16 61.44 59.63 52.30 57.34 57.86 57.70 59.21 59.28 59.01 57.98 58.18 57.79 56.20 53.46 49.24 48.19 44.99 42.49 45.69 50.59 55.46 55.29 59.25 61.44 59.03 57.68 60.46 63.41 63.53 64.02 64.83 65.33 65.70 66.71
54.36 54.11 53.99 53.99 53.62 52.94 50.91 51.25 52.11 51.94 53.09 53.84 53.14 54.67 54.82 58.02 61.13 56.90 57.42 56.93 57.12 56.42 51.26 54.11 47.38 44.74 47.24 49.30 50.81 51.42 55.59 54.73 57.86 61.24 59.15 55.96 55.81 59.86 61.88 62.93 62.90 63.81 64.56 64.95 65.80
54.19 53.86 53.74 53.41 52.91 52.27 51.22 50.73 50.87 50.74 45.86 52.39 54.75 56.38 57.88 57.94 55.44 57.00 57.18 52.65 53.13 50.96 52.90 50.55 47.72 50.75 52.47 52.14 51.87 51.53 54.19 54.63 57.70 60.44 58.30 56.72 55.66 60.45 61.49 61.94 63.28 63.72 64.41 65.23 65.76
53.92 53.53 53.30 52.91 51.77 52.55 50.38 50.79 55.30 53.08 44.64 48.83 51.87 51.71 54.75 57.66 55.46 54.23 55.00 53.71 51.90 50.93 50.79 48.46 49.56 53.65 52.11 51.58 51.26 51.14 49.88 54.52 54.70 57.89 58.36 57.58 54.54 57.32 60.90 62.32 63.57 64.36 65.20 65.60 65.65
53.72 53.49 52.87 51.69 50.37 48.15 49.60 54.73 54.61 53.60 40.23 46.65 49.02 51.78 53.11 56.39 53.49 59.21 57.49 54.48 52.93 50.28 50.61 48.39 51.87 51.02 50.11 50.36 52.30 48.53 54.39 54.94 57.40 54.25 48.92 57.19 45.31 55.55 58.43 59.39 61.49 62.62 63.89 64.21 65.09
53.38 53.18 52.58 51.79 46.30 47.21 52.51 55.36 55.00 50.65 34.48 53.62 51.14 56.04 53.22 52.44 53.96 54.72 58.55 54.18 50.88 51.57 49.75 47.45 48.65 48.62 48.89 50.49 52.97 51.36 55.24 55.25 56.24 53.80 52.74 54.01 48.73 52.73 58.94 56.86 58.97 61.47 62.86 63.66 64.53
52.89 52.48 52.19 49.37 48.57 50.74 53.20 53.52 50.82 39.56 36.40 50.67 52.50 50.16 49.05 51.23 52.94 54.75 54.10 55.39 55.48 52.43 51.81 50.53 53.04 50.49 49.77 53.51 53.96 54.96 53.05 52.62 51.71 50.88 47.04 50.36 50.66 49.64 56.39 57.92 59.27 61.94 62.96 63.84 63.95
52.08 51.21 50.37 50.76 45.05 50.24 52.79 49.62 38.02 36.27 51.00 49.25 48.19 49.27 48.52 47.15 49.16 51.15 50.67 49.71 48.01 45.42 45.88 49.50 50.12 51.91 52.75 48.53 52.48 52.21 47.35 42.02 40.85 41.11 41.79 49.39 49.34 49.42 56.37 60.01 62.09 61.64 63.16 63.91 64.07
51.19 50.62 51.00 51.94 53.01 51.91 50.56 41.32 33.99 45.15 45.73 52.45 50.74 50.02 47.26 48.28 47.83 49.16 49.13 47.81 51.09 49.48 45.64 44.34 44.01 50.42 52.58 49.21 46.95 49.40 47.56 42.82 38.22 40.65 44.33 50.16 46.16 51.37 58.63 60.05 64.63 64.22 64.14 64.83 64.02
50.13 48.47 48.69 50.72 52.31 52.31 45.24 34.72 38.67 44.79 50.69 46.17 47.57 48.49 47.36 49.20 48.08 47.59 47.04 47.77 51.19 51.42 45.35 44.87 46.02 53.10 53.50 51.97 50.14 46.25 46.86 49.74 44.04 45.77 45.52 46.58 49.71 54.74 57.21 56.92 61.25 63.23 63.74 64.12 64.51
46.31 46.45 47.89 53.62 53.57 49.99 42.24 36.98 40.78 46.35 46.77 45.09 41.44 47.85 46.18 47.78 46.90 46.14 46.19 49.36 50.17 53.42 53.11 48.61 43.99 51.84 52.86 52.76 50.57 48.20 50.34 46.49 45.32 38.61 38.38 45.87 46.85 49.93 54.16 55.86 57.74 61.16 62.10 63.72 65.06
46.48 41.87 48.87 52.57 53.00 46.16 37.38 39.15 42.47 46.01 46.35 44.44 43.97 42.97 44.65 45.90 48.81 47.06 46.35 49.37 51.46 51.88 53.25 50.93 46.98 48.14 50.99 47.39 46.06 44.78 45.84 44.14 45.86 45.13 40.84 40.40 45.07 55.74 55.07 58.83 57.55 57.77 60.26 63.26 64.43
43.80 36.90 49.56 50.80 40.92 43.31 39.49 42.42 44.54 43.92 45.93 44.62 45.26 44.59 44.36 46.89 46.32 46.42 47.76 49.38 52.49 52.79 49.39 51.49 45.86 44.60 47.57 50.20 51.42 48.32 45.64 45.03 41.85 42.55 44.84 44.81 46.67 58.41 58.77 57.38 59.61 57.83 58.43 60.64 64.64
39.94 40.81 48.87 48.69 36.51 38.90 42.57 42.66 43.83 43.22 43.58 43.66 43.61 46.10 47.06 45.35 43.10 48.08 50.10 53.92 53.93 52.81 50.23 51.54 47.99 42.90 44.31 47.85 48.98 47.45 47.69 46.30 45.06 45.02 44.55 42.61 46.41 55.53 57.65 58.16 59.43 57.62 58.21 60.23 62.14
40.93 35.72 43.21 45.55 44.47 40.20 39.71 40.32 40.01 45.12 44.05 45.31 44.35 46.13 45.67 44.37 45.64 44.99 46.54 50.81 52.79 53.40 60.51 56.96 47.22 46.12 43.29 45.30 47.41 45.79 47.73 48.04 44.78 43.78 43.92 46.63 48.85 52.26 55.42 56.85 58.63 58.97 60.92 59.85 60.26
41.44 37.94 42.10 36.75 37.21 39.09 40.16 40.47 40.90 41.11 46.37 47.15 44.17 45.22 44.55 40.98 43.54 43.84 47.36 48.59 51.85 55.17 52.41 52.74 46.53 47.55 49.37 50.50 50.67 48.71 48.37 48.39 45.74 44.99 44.24 46.83 49.20 50.42 54.05 57.53 59.01 60.04 59.46 59.59 60.54
39.06 39.43 41.15 38.90 41.07 38.85 39.21 38.81 40.24 41.94 42.92 42.88 42.03 45.81 46.09 42.35 43.46 41.42 43.30 44.08 45.96 48.34 48.93 50.50 46.24 48.22 47.37 50.66 50.43 49.18 50.39 49.24 48.58 48.25 46.56 48.15 48.00 52.66 55.55 56.32 58.45 60.34 61.40 60.84 60.85
44.71 46.01 41.95 38.71 38.26 37.37 36.60 38.60 39.83 41.71 43.44 44.64 44.33 42.78 44.69 43.14 45.80 46.00 46.43 46.19 46.52 45.30 45.46 47.17 47.88 45.84 41.60 48.81 49.20 46.18 49.62 49.95 49.33 50.01 49.02 45.38 48.43 52.11 53.29 54.95 57.84 61.15 61.02 60.59 61.28
MSLP
1019.07 1018.57 1018.06 1017.54 1016.93 1016.39 1015.90 1015.39 1014.87 1014.46 1014.05 1013.53 1013.11 1012.67 1012.11 1011.41 1010.12 1009.29 1007.97 1005.47 1005.09 1005.01 1005.58 1005.19 1005.66 1005.09 1004.28 1003.81 1003.25 1002.97 1003.78 1003.35 1002.85 1002.95 1003.33 1003.51 1004.19 1005.25 1005.95 1007.72 1008.40 1009.10 1010.22 1011.78 1012.51
1019.07 1018.55 1018.08 1017.47 1016.86 1016.35 1015.78 1015.24 1014.62 1014.11 1013.69 1013.30 1012.77 1012.39 1012.00 1011.49 1010.37 1007.67 1004.66 1004.13 1004.32 1004.89 1005.26 1004.63 1004.72 1004.07 1003.62 1002.66 1002.15 1002.33 1002.84 1002.80 1001.93 1002.13 1002.86 1003.34 1004.17 1004.91 1006.15 1007.75 1009.10 1009.97 1011.22 1011.99 1012.52
1019.19 1018.62 1017.98 1017.40 1016.86 1016.20 1015.62 1015.05 1014.50 1013.94 1013.38 1012.96 1012.55 1011.99 1011.69 1011.43 1009.85 1005.12 1003.18 1003.09 1003.96 1004.49 1004.42 1004.13 1004.02 1003.63 1003.01 1002.25 1000.95 1000.56 1000.95 1001.05 1001.37 1001.75 1002.42 1003.29 1003.75 1004.37 1005.80 1007.79 1008.66 1009.72 1011.11 1011.77 1012.31
1019.12 1018.53 1017.93 1017.35 1016.71 1016.06 1015.45 1014.78 1014.15 1013.62 1013.14 1012.61 1012.22 1011.85 1011.31 1010.88 1008.03 1003.85 1003.61 1003.37 1003.76 1004.40 1004.63 1004.38 1003.49 1003.49 1002.98 1002.15 1000.53 1000.46 1000.01 1000.26 1001.09 1001.53 1002.23 1002.93 1003.41 1003.77 1005.38 1007.43 1008.60 1009.63 1010.69 1011.49 1012.16
1019.05 1018.43 1017.75 1016.99 1016.37 1015.78 1015.12 1014.46 1013.80 1013.18 1012.77 1012.35 1011.93 1011.55 1010.76 1009.77 1005.76 1003.33 1003.77 1004.10 1004.40 1004.61 1004.33 1004.31 1003.69 1003.32 1002.72 1001.71 1000.74 999.73 999.81 1000.11 1000.74 1001.43 1002.04 1002.49 1003.47 1004.40 1005.93 1007.38 1008.58 1009.54 1010.61 1011.29 1012.05
1018.95 1018.28 1017.54 1016.75 1015.92 1015.19 1014.56 1013.98 1013.30 1012.65 1012.25 1011.95 1011.71 1011.49 1010.85 1008.06 1003.31 1002.53 1003.24 1004.11 1003.78 1004.19 1003.87 1003.84 1003.00 1002.71 1002.26 1001.66 1000.91 999.73 999.54 1000.26 1000.83 1001.34 1001.99 1002.82 1003.77 1004.42 1006.17 1007.19 1008.38 1009.31 1010.29 1010.83 1011.21
1018.94 1018.12 1017.32 1016.51 1015.69 1014.80 1013.93 1013.30 1012.69 1012.04 1011.54 1011.39 1011.35 1010.99 1009.31 1004.90 1002.37 1002.64 1002.82 1002.83 1002.90 1003.22 1003.47 1003.21 1002.85 1002.93 1001.84 1001.49 1000.30 999.92 1000.08 1000.44 1001.04 1001.28 1002.17 1002.87 1004.37 1005.03 1005.90 1006.67 1008.06 1009.02 1009.73 1010.30 1010.64
1018.83 1018.07 1017.19 1016.20 1015.30 1014.43 1013.46 1012.48 1011.73 1011.17 1010.84 1010.65 1010.81 1010.37 1007.33 1002.79 1002.09 1002.17 1002.36 1002.27 1002.01 1002.33 1002.74 1002.79 1002.51 1002.61 1002.26 1001.73 1001.00 1000.98 1000.17 1000.90 1001.03 1001.35 1001.94 1002.65 1004.41 1005.19 1005.77 1006.53 1007.42 1008.13 1008.93 1009.83 1010.25
1018.85 1017.87 1016.98 1015.97 1014.92 1013.94 1012.91 1011.61 1010.32 1009.97 1010.05 1010.23 1010.34 1009.41 1005.19 1001.37 1001.69 1001.14 1001.23 1001.45 1001.45 1001.84 1002.20 1002.37 1002.48 1002.57 1002.28 1002.45 1002.09 1001.18 1000.99 1000.83 1001.58 1001.79 1002.13 1002.95 1004.60 1005.09 1005.54 1006.33 1007.03 1007.42 1007.84 1008.35 1009.47
1018.91 1017.96 1016.89 1015.72 1014.50 1013.60 1012.35 1010.33 1008.91 1009.31 1009.41 1009.48 1008.71 1008.21 1003.66 1000.71 999.95 1000.35 1000.51 1000.71 1001.01 1001.59 1002.05 1002.32 1002.55 1002.73 1002.69 1002.91 1002.43 1001.74 1001.37 1001.69 1001.82 1001.90 1002.21 1003.36 1003.95 1004.50 1005.23 1006.16 1006.55 1006.73 1007.23 1007.73 1008.30
1018.87 1017.87 1016.77 1015.55 1014.10 1013.20 1012.37 1010.15 1008.99 1009.04 1008.21 1006.57 1005.03 1003.27 1000.51 999.77 999.59 999.64 999.71 1000.31 1000.59 1001.17 1001.87 1002.17 1002.77 1002.43 1002.29 1001.88 1001.39 1001.83 1001.35 1001.59 1001.41 1001.07 1002.27 1003.08 1003.53 1003.81 1004.28 1005.27 1006.13 1006.59 1006.55 1007.19 1007.71
1018.75 1017.79 1016.63 1015.29 1013.72 1012.39 1012.29 1010.84 1008.20 1007.47 1005.67 1004.37 1003.29 1002.48 1001.01 1000.18 999.94 999.07 999.41 1000.19 1000.40 1000.91 1001.63 1002.10 1001.69 1001.49 1001.51 1001.40 1001.09 1001.15 1001.60 1001.03 1000.72 1001.16 1001.42 1002.69 1003.07 1003.29 1003.29 1003.92 1004.85 1005.61 1006.22 1006.56 1007.19
1018.63 1017.79 1016.65 1015.18 1012.85 1011.61 1011.31 1009.33 1007.45 1006.80 1005.89 1001.93 1000.44 1000.04 999.61 999.85 999.06 997.99 998.68 999.49 1000.02 1000.57 1000.94 1000.92 1000.60 1001.23 1000.94 1000.62 1000.45 1000.15 1000.17 1000.37 1000.26 1000.59 1000.75 1002.35 1003.63 1003.36 1002.99 1003.11 1003.73 1004.28 1004.94 1005.71 1006.17
1018.47 1017.73 1016.99 1015.55 1012.27 1012.58 1010.45 1008.17 1007.45 1007.06 1005.71 1000.43 998.25 996.90 998.34 998.91 998.09 997.10 997.65 998.75 999.38 999.76 1000.29 1000.43 1000.22 1000.05 999.94 999.78 999.68 999.35 998.59 998.85 1000.06 1000.87 1001.05 1001.53 1002.59 1002.95 1002.15 1002.29 1002.61 1003.09 1003.66 1004.35 1005.21
1018.25 1017.52 1016.96 1016.89 1015.59 1013.26 1010.24 1009.05 1008.23 1007.48 1004.53 996.37 995.78 994.84 995.82 997.01 996.25 996.15 996.65 997.83 998.55 998.91 999.82 999.24 999.21 999.09 998.96 998.69 998.80 998.37 998.13 998.86 999.37 1000.28 1001.06 1000.69 1001.22 1000.90 1001.54 1001.40 1001.35 1001.89 1002.39 1003.05 1003.74
1017.97 1017.16 1016.53 1015.26 1014.52 1011.85 1010.86 1009.56 1008.27 1007.36 1001.97 995.85 994.47 994.72 995.89 996.67 996.18 996.01 996.58 997.29 998.05 998.77 998.79 998.83 998.24 998.04 997.94 997.87 998.01 997.87 998.36 998.68 999.11 1000.25 1000.75 1000.41 1000.49 999.67 999.99 999.50 1000.06 1000.64 1001.16 1001.84 1002.63
1017.58 1016.43 1015.98 1015.30 1012.99 1010.67 1010.99 1009.91 1008.63 1004.92 998.85 995.43 994.69 994.91 995.24 995.78 996.42 996.19 996.49 997.02 997.52 998.39 998.47 998.49 997.88 997.37 997.09 997.42 997.48 997.79 998.84 999.65 1000.35 1000.23 1000.54 999.63 999.28 998.33 997.33 997.41 998.12 999.01 999.92 1000.59 1001.20
1017.11 1015.58 1013.37 1012.39 1011.42 1011.60 1011.19 1010.42 1007.37 1001.99 999.25 995.22 995.83 994.97 995.08 995.27 995.89 995.93 996.30 996.56 997.12 997.73 998.50 998.38 997.57 996.62 996.19 996.51 997.23 997.55 998.46 999.71 1000.35 1000.54 1000.23 999.25 998.46 996.79 996.11 995.16 996.18 997.45 998.34 999.32 1000.23
1016.74 1014.17 1012.19 1009.89 1009.94 1010.31 1010.73 1009.23 1005.02 1002.11 999.44 999.37 996.80 995.33 995.04 994.86 994.98 995.67 995.68 995.90 996.17 996.95 997.66 997.74 997.12 996.31 995.92 995.97 996.58 997.44 997.56 998.55 999.81 1000.02 1000.20 999.05 997.50 996.11 995.69 995.36 995.63 996.69 997.51 998.33 999.22
1016.93 1014.31 1010.57 1008.70 1008.75 1009.35 1009.47 1007.40 1005.11 1002.43 1001.39 1001.23 999.79 996.63 995.99 994.69 994.90 995.04 995.20 994.45 995.03 995.70 996.66 996.77 997.16 996.11 995.56 995.76 995.82 996.49 997.63 998.40 999.08 1000.27 1000.66 999.28 997.68 996.32 995.62 995.71 995.65 996.24 996.93 997.48 998.12
1016.71 1013.97 1008.56 1007.45 1007.56 1008.38 1007.97 1007.13 1005.96 1003.11 1003.53 1001.91 1000.09 998.90 997.82 997.00 994.76 993.89 993.91 993.87 993.71 994.46 995.49 996.34 996.99 996.06 995.41 995.18 995.72 996.33 997.04 997.95 998.66 999.74 1000.25 999.54 998.13 995.61 995.18 995.32 995.43 995.80 996.14 996.69 997.31
1016.97 1014.45 1008.94 1009.33 1009.19 1008.25 1007.93 1007.23 1006.44 1004.18 1003.63 1002.85 1001.50 1000.08 998.78 997.66 996.46 995.50 993.56 992.55 992.49 993.23 994.17 995.03 995.77 996.22 995.57 994.66 994.73 995.40 996.27 997.37 998.83 999.29 999.46 998.87 997.09 995.31 994.91 994.60 995.05 995.35 995.51 995.95 996.35
1017.54 1014.59 1010.89 1009.69 1009.99 1008.89 1007.93 1006.75 1005.46 1004.19 1003.05 1002.43 1001.45 999.87 999.11 998.51 997.75 996.06 994.49 992.99 992.47 992.17 993.08 994.27 995.07 996.10 995.63 994.99 994.31 994.73 995.70 996.52 997.63 998.63 999.01 998.70 996.30 995.35 995.11 994.99 994.60 994.84 995.23 995.55 996.01
1018.22 1015.09 1012.96 1011.96 1011.66 1010.82 1009.17 1007.17 1005.46 1003.65 1002.51 1001.87 1000.89 1000.27 999.64 999.25 998.57 997.54 996.50 994.69 993.68 993.21 992.00 993.16 994.36 995.12 994.93 994.56 994.19 994.52 995.01 995.73 996.65 997.78 998.21 997.51 996.27 994.99 995.11 994.80 994.53 994.55 995.50 995.76 996.04
1018.34 1016.43 1015.98 1015.17 1013.74 1012.62 1010.91 1008.88 1006.22 1004.23 1002.58 1001.70 1000.57 1000.25 1000.27 1000.39 1000.01 999.55 998.71 996.98 995.51 994.91 993.67 992.91 994.11 994.55 994.56 994.30 993.73 993.72 994.01 994.56 995.42 996.07 996.62 996.59 995.84 994.61 994.56 994.31 994.04 994.59 994.88 995.31 995.79
1018.67 1018.14 1017.15 1016.39 1014.88 1012.93 1011.80 1009.53 1007.13 1005.35 1004.08 1002.79 1002.42 1001.08 1001.07 1001.86 1002.55 1001.97 1001.42 1000.25 998.65 997.31 996.31 994.79 994.63 994.57 994.65 994.17 993.39 993.39 993.59 993.49 993.85 994.53 995.01 995.31 995.03 993.99 993.85 993.99 994.32 994.39 994.54 995.00 995.39
1018.40 1018.20 1017.92 1016.53 1014.71 1013.81 1013.37 1011.29 1009.17 1007.49 1004.92 1004.32 1003.84 1003.29 1002.76 1003.55 1003.25 1002.80 1002.39 1001.64 1000.57 1000.01 998.75 997.23 996.26 995.32 995.03 994.35 993.92 993.24 992.29 992.75 993.13 993.17 993.82 994.42 994.70 994.15 993.89 993.81 993.91 993.98 993.91 994.42 994.66
Wind_Speed
20 20 20 20 20 20 21 21 21 20 19 19 19 17 17 18 21 4 8 11 7 14 4 6 10 13 17 17 18 15 3 6 12 13 8 14 18 19 20 21 12 7 20 20 20
21 21 21 21 21 20 20 20 21 21 21 20 19 17 15 15 6 12 16 17 9 13 5 10 9 13 11 12 9 9 6 11 8 11 9 15 16 13 17 20 21 21 20 19 18
21 21 22 22 22 22 21 21 21 21 21 20 19 18 15 12 6 9 9 21 14 14 7 11 13 16 16 13 18 12 8 10 12 14 17 12 12 14 19 20 24 28 21 18 18
22 23 23 23 23 24 23 23 22 21 21 21 18 17 15 4 6 2 4 8 13 10 8 9 11 11 8 11 17 7 12 15 11 16 16 10 7 9 22 20 24 24 22 19 19
23 24 24 25 25 24 25 24 23 22 21 20 18 14 7 4 14 10 7 5 5 4 11 10 14 10 11 11 16 4 12 12 12 13 12 10 13 17 23 26 25 24 20 18 19
23 23 24 25 26 26 25 24 24 24 22 19 15 10 3 11 10 17 12 8 9 8 9 12 10 10 12 16 13 6 13 17 12 11 10 12 10 14 22 26 26 24 21 19 18
23 24 25 26 27 27 27 26 25 24 22 18 10 5 7 22 6 5 11 10 8 10 10 11 15 11 10 12 9 15 5 19 11 10 11 12 10 14 19 18 24 24 23 21 20
24 25 26 28 28 28 28 29 28 26 20 14 7 5 11 9 17 21 17 13 11 9 11 11 12 13 7 10 15 9 5 7 9 9 9 11 9 16 18 19 17 17 21 23 21
25 27 27 29 30 30 29 32 31 21 10 4 4 4 12 10 10 14 14 13 11 9 9 14 10 9 9 7 8 6 6 10 5 1 8 7 9 14 17 18 17 16 14 14 21
25 27 29 30 31 30 32 32 20 6 5 9 9 4 9 13 8 13 17 17 10 9 9 9 5 6 6 2 10 8 4 8 12 7 9 7 7 17 18 16 17 17 13 12 13
25 27 29 31 33 31 20 9 3 1 5 10 10 10 16 10 9 10 9 12 12 9 9 11 5 9 13 15 17 8 12 18 17 12 8 11 11 16 18 18 16 14 15 12 12
25 27 30 32 35 35 9 4 5 7 13 15 25 25 27 18 16 15 13 11 12 11 9 6 16 17 13 15 16 15 15 16 10 13 7 12 13 16 18 20 20 17 16 16 13
25 26 29 32 38 14 13 11 10 11 6 14 25 18 23 13 24 14 18 15 9 11 15 16 11 16 19 15 17 18 13 17 10 10 10 13 3 11 14 18 20 19 20 17 18
25 26 26 33 10 11 8 17 13 11 5 11 10 11 14 13 17 14 18 19 9 16 15 13 16 20 20 17 17 17 18 13 19 7 5 15 7 13 19 20 21 22 21 19 19
26 26 24 19 9 6 11 18 19 6 6 4 11 8 15 15 7 16 19 13 19 11 10 13 16 18 19 20 18 17 12 5 16 16 12 11 2 12 16 20 18 22 22 21 20
28 26 27 9 5 16 16 19 6 2 11 6 10 11 12 19 17 14 12 14 10 15 15 14 10 13 17 16 18 18 13 13 6 9 8 9 14 7 21 26 19 21 23 23 20
28 31 23 9 7 8 12 6 3 8 9 7 13 17 17 11 24 23 22 19 16 15 16 11 21 16 18 10 15 17 9 5 5 3 7 10 4 10 16 18 25 23 23 23 22
31 33 9 10 10 13 5 4 9 10 16 10 7 15 19 15 22 21 17 16 18 13 7 10 11 18 14 16 9 18 11 7 6 5 7 8 6 9 8 13 30 24 22 22 22
28 8 9 9 13 9 5 9 7 7 6 20 17 13 13 15 10 19 21 20 20 22 12 13 17 8 18 11 13 10 13 11 5 8 3 6 7 3 5 6 18 25 22 22 23
11 7 11 13 11 6 8 14 11 15 25 19 9 7 4 19 21 22 21 16 22 23 20 9 7 18 17 16 13 14 8 11 6 6 6 8 4 6 6 7 10 21 20 21 21
3 8 11 13 7 7 11 10 17 31 20 13 16 24 20 16 12 18 21 22 19 21 23 19 10 15 16 18 16 5 11 4 6 7 7 4 8 7 8 8 10 11 15 19 21
6 6 8 15 6 5 11 17 20 30 22 21 24 24 22 14 10 7 13 27 21 19 23 19 7 14 17 13 20 11 9 9 6 7 4 6 12 5 7 4 6 9 10 13 20
7 9 8 8 6 9 13 21 21 24 22 20 19 19 19 10 7 6 8 10 10 21 21 17 16 11 10 9 11 20 12 9 6 4 10 6 12 7 4 6 15 11 8 8 11
5 7 7 7 12 15 16 16 21 20 23 22 23 21 13 9 7 9 17 13 22 22 23 18 9 16 14 10 5 19 16 13 10 10 7 7 12 9 8 9 10 10 9 9 10
4 5 4 6 13 20 17 19 18 18 11 12 15 14 6 6 8 11 13 15 16 16 16 20 17 12 20 17 17 7 20 20 14 9 10 7 10 7 5 3 7 9 8 10 10
3 4 5 10 11 16 15 14 17 15 11 13 15 12 9 6 8 11 13 7 5 14 11 11 5 9 11 20 21 18 12 19 20 16 7 8 9 7 8 5 7 10 9 10 11
5 4 5 6 10 9 5 18 24 22 13 15 14 11 11 16 14 15 11 12 14 10 11 7 6 4 6 5 6 12 14 10 13 16 17 11 9 6 8 6 3 3 5 8 10
Wind_Direction
359 355 352 348 344 341 337 334 330 329 327 324 323 321 319 319 309 202 242 231 185 181 200 250 191 237 249 256 251 258 273 352 122 112 112 96 93 106 118 132 148 207 137 149 167
356 353 349 346 342 338 333 330 327 325 324 323 322 321 321 324 289 262 233 228 203 158 207 248 254 243 241 260 246 211 211 191 144 132 135 102 112 143 132 112 103 105 124 153 171
353 349 346 342 339 335 330 326 323 322 321 321 322 321 319 315 282 245 336 219 165 176 241 273 273 273 283 290 282 287 86 104 112 108 109 119 158 145 119 123 137 136 145 154 154
348 345 342 338 335 331 328 324 321 319 319 319 320 320 315 267 275 88 61 124 154 181 246 264 273 268 279 282 290 296 123 111 121 124 124 157 158 142 132 140 137 139 153 160 154
344 341 338 334 331 328 325 322 317 316 315 315 317 321 314 232 244 249 140 144 149 198 223 230 256 266 257 284 298 268 120 120 103 104 136 160 102 106 123 137 138 141 153 162 158
341 337 335 331 328 326 322 320 315 312 310 310 311 314 242 250 252 253 165 158 197 198 214 222 241 248 272 277 285 291 125 114 117 142 120 113 114 107 127 137 144 150 163 171 169
340 336 333 329 327 324 320 317 311 306 303 302 295 265 255 236 259 134 189 191 196 189 225 228 248 270 288 301 287 321 141 123 147 158 131 131 111 127 135 136 149 163 172 176 179
337 334 331 327 325 322 319 314 307 299 294 287 251 236 250 247 240 256 253 227 194 217 200 238 245 258 271 296 306 311 262 137 158 153 163 122 150 141 142 145 156 168 175 182 186
335 332 330 326 323 321 319 311 300 291 253 216 171 240 265 264 215 246 225 244 195 199 197 229 249 242 292 276 309 292 229 136 89 314 136 104 143 155 152 157 166 174 184 172 184
334 330 327 325 322 323 320 305 287 293 199 185 262 265 252 241 218 203 231 222 227 183 207 212 234 233 257 248 242 243 155 75 153 202 126 146 168 163 162 167 179 175 182 179 166
334 331 327 324 320 321 333 336 308 89 228 223 201 229 282 246 251 190 216 197 233 186 189 199 186 219 218 228 248 266 155 173 226 181 136 181 164 174 169 169 182 187 177 183 181
334 331 328 325 319 317 299 269 351 285 291 251 248 247 261 272 284 215 181 188 219 199 192 201 218 219 228 234 243 256 193 197 226 165 128 168 203 188 179 179 180 185 186 185 182
333 332 330 327 316 309 320 275 314 331 277 273 236 234 225 218 251 197 176 198 208 198 199 214 217 222 233 227 241 241 232 213 187 233 231 162 225 209 206 186 182 187 183 187 187
330 330 334 336 327 341 286 350 334 329 288 266 205 235 214 225 258 210 186 191 220 203 218 217 238 201 230 233 230 250 252 257 176 202 220 160 218 209 202 201 186 187 181 187 188
327 327 328 325 288 293 315 322 312 323 300 206 168 178 169 189 164 219 186 189 216 200 198 221 200 229 217 225 237 247 261 231 167 200 230 239 119 201 202 195 194 186 184 186 183
325 323 324 314 275 254 292 303 301 242 245 256 141 162 149 198 230 183 206 187 202 226 218 224 223 223 229 218 234 252 267 274 257 183 197 224 197 266 178 196 192 183 184 184 184
322 316 312 273 239 319 328 306 226 230 274 233 161 157 183 174 211 227 192 196 197 211 232 242 227 231 231 232 218 238 250 279 326 325 206 224 192 223 196 187 181 184 180 187 184
322 312 263 247 229 248 264 298 239 234 247 358 311 178 189 181 207 217 201 205 200 214 199 218 234 219 224 220 205 224 217 196 201 204 245 251 217 245 220 158 178 179 181 181 181
323 301 275 247 238 213 230 229 221 224 319 359 334 206 195 194 175 210 222 208 199 204 208 210 239 213 236 228 207 254 228 225 230 249 296 238 256 275 225 171 154 176 182 179 182
319 290 263 255 233 215 226 240 271 283 332 345 305 296 264 195 196 190 211 208 208 193 211 253 201 224 219 225 237 200 220 239 226 207 249 283 258 213 175 182 156 173 181 183 180
264 303 271 275 186 208 230 246 269 277 288 292 307 309 305 317 232 193 204 224 197 203 197 223 220 268 216 207 216 224 225 246 191 162 196 234 266 210 189 179 186 178 178 180 186
302 290 315 340 311 223 245 251 261 275 284 285 294 290 285 297 303 312 209 202 207 192 198 205 178 234 246 220 201 194 207 188 163 271 243 212 257 72 138 113 176 186 199 175 187
299 281 284 287 276 269 256 262 261 260 264 270 266 284 292 304 312 291 324 328 291 187 196 195 219 241 278 283 211 196 212 216 206 182 249 184 265 123 302 225 200 186 201 131 158
290 311 353 323 354 351 328 299 289 280 258 259 266 276 287 305 288 291 309 303 323 318 191 189 176 211 229 224 195 194 206 209 196 224 232 223 253 284 232 255 197 173 145 152 142
271 315 32 333 327 317 312 303 304 303 317 318 246 259 274 310 321 312 350 337 337 11 338 189 206 189 227 245 266 202 198 204 214 217 194 235 222 260 238 155 163 183 160 152 159
284 332 344 297 283 298 344 322 328 323 312 310 360 313 323 25 17 335 355 358 307 335 329 335 198 175 206 226 244 254 238 207 211 223 233 216 252 252 250 206 197 208 184 164 160
331 297 291 282 295 321 296 313 315 352 331 337 4 0 10 1 339 318 300 279 280 301 317 301 8 133 215 216 284 256 231 229 223 210 213 228 221 244 285 286 103 40 173 181 180